Location: ??
(35.1714°N, 128.2806°E)
Time: 15:43:43
(UTC+00:00)

H-2A R/B - Pass Details

Date: 29 October 2020
Orbit: 500 x 540 km, 97.3° (Epoch: 28 November)

Event Time Altitude Azimuth Distance (km) Brightness Sun altitude
Rises 21:07:40 0° 10° (N) 2,656 6.3 -8.5°
Reaches altitude 10° 21:09:46 10° 9° (N) 1,770 5.4 -8.1°
Maximum altitude 21:13:35 80° 284° (WNW) 542 2.7 -7.3°
Drops below altitude 10° 21:17:25 10° 196° (SSW) 1,779 5.4 -6.5°
Sets 21:19:32 0° 195° (SSW) 2,670 6.3 -6.1°
